Simultaneous Nadir Overpasses (SNOs) Predictions

Prediction of SNOs between GOES-17 and METOP-B Satellite Orbit:

Table of predicted SNOs for the next 14.0 days since TLE Epoch: 5/28/2022
Index Date Time (GOES-17) GOES-17 Lat,Lon METOP-B Lat,Lon Distance(km) Time Diff (sec)
1 05/28/2022 06:33:35 -0.05,-137.19 0.33,-135.58 184.04 80
2 05/29/2022 18:49:46 0.05,-137.18 0.73,-140.13 336.86 80
3 05/30/2022 18:31:48 0.04,-137.18 -0.41,-135.15 231.34 80
4 06/01/2022 06:48:09 -0.04,-137.17 -0.61,-139.75 294.36 80
5 06/02/2022 06:30:10 -0.03,-137.15 0.48,-134.75 273.37 80
6 06/03/2022 18:46:22 0.03,-137.14 0.52,-139.32 248.78 80
7 06/04/2022 18:28:22 0.03,-137.12 -0.57,-134.32 318.68 80
8 06/06/2022 06:44:44 -0.02,-137.10 -0.44,-138.92 207.87 80
9 06/07/2022 06:26:45 -0.02,-137.09 0.71,-133.94 359.38 80
10 06/08/2022 18:42:57 0.02,-137.06 0.34,-138.49 163.51 80
11 06/09/2022 18:24:57 0.02,-137.04 -0.76,-133.50 403.42 80
